{"data":{"norad_id":68252,"intl_designator":"2026-054W","name":"STARLINK-37085","alt_names":[],"object_type":"PAYLOAD","status":"ACTIVE","operator":null,"country":"US","launch_date":"2026-03-17","launch_site_code":"AFETR","launch_vehicle":null,"mission":null,"orbit_class":"UNKNOWN","rcs_meters":null,"size_class":null,"mass_kg":null,"dimensions":null,"purposes":["comms"],"wikipedia_slug":null,"has_3d_model":false,"image_url":null,"decayed_at":null,"tle_current":{"epoch":"2026-09-19T22:37:35.613120Z","epoch_age_seconds":99558,"freshness":"FRESH","line1":"1 68252U 26054W   26262.94277330  .00019548  00000+0  58797-3 0  9998","line2":"2 68252  53.1573 104.5774 0001586  76.8449 283.2731 15.34411489 28876","mean_motion":15.34411489,"eccentricity":0.0001586,"inclination_deg":53.1573,"raan_deg":104.5774,"arg_perigee_deg":76.8449,"mean_anomaly_deg":283.2731,"bstar":0.00058797,"rev_number":2887,"period_min":93.847055390498,"perigee_km":461.58414084468,"apogee_km":463.75404453728,"semimajor_km":6840.806092691,"source":"CELESTRAK","updated_at":"2026-09-20T09:00:43.843560Z"}}}